Millington, TN

6:34 AM CST on December 11, 2016 (GMT -0600)
Millington Municipal

Weather History for KNQA - June, 2014

Change the Weather History Date:

Tuesday, June 3, 2014

  Actual Average Record
Temperature  
Mean Temperature 81 °F -  
Max Temperature 89 °F 82 °F 98 °F (2011)
Min Temperature 73 °F 65 °F 53 °F (2006)
Cooling Degree Days 16    
Growing Degree Days 31 (Base 50)    
Moisture  
Dew Point 73 °F    
Average Humidity 82    
Maximum Humidity 94    
Minimum Humidity 59    
Precipitation  
Precipitation 0.00 in - - ()
Sea Level Pressure  
Sea Level Pressure 30.03 in    
Wind  
Wind Speed 3 mph (South)    
Max Wind Speed 6 mph    
Max Gust Speed -    
Visibility 10 miles    
Events Rain    
Averages and records for this station are not official NWS values.
T = Trace of Precipitation, MM = Missing Value Source: NWS Daily Summary

Daily Weather History Graph

Daily Weather History Graph

Search for Another Location

Airport or City:

Trip Planner

Search our weather history database for the weather conditions in past years. The results will help you decide how hot, cold, wet, or windy it might be!

Date:

Astronomy

Jun. 03, 2014 Rise Set
Actual Time 5:45 AM CDT 8:10 PM CDT
Civil Twilight 5:15 AM CDT 8:39 PM CDT
Nautical Twilight 4:39 AM CDT 9:16 PM CDT
Astronomical Twilight 3:59 AM CDT 9:56 PM CDT
Moon 11:00 AM CDT (6/3) No Moon Set
Length of Visible Light 15h 24m
Length of Day
14h 25m
Waxing Crescent, 30% of the Moon is Illuminated
Jun 3
Waxing Crescent
Jun 5
First Quarter
Jun 12
Full
Jun 19
Last Quarter
Jun 27
New

Hourly Weather History & Observations

Time (CDT) Temp. Heat Index Dew Point Humidity Pressure Visibility Wind Dir Wind Speed Gust Speed Precip Events Conditions
12:50 AM 75.2 °F - 71.6 °F 89% 30.06 in 10.0 mi SSE 3.5 mph - N/A   Mostly Cloudy
1:50 AM 73.4 °F - 71.6 °F 94% 30.06 in 10.0 mi SE 4.6 mph - N/A   Mostly Cloudy
2:15 AM 75.2 °F - 71.6 °F 89% 30.05 in 10.0 mi SSE 3.5 mph - N/A   Mostly Cloudy
2:35 AM 75.2 °F - 71.6 °F 89% 30.05 in 10.0 mi South 3.5 mph - N/A   Overcast
2:55 AM 75.2 °F - 71.6 °F 89% 30.05 in 10.0 mi Calm Calm - N/A   Overcast
3:15 AM 75.2 °F - 71.6 °F 89% 30.05 in 10.0 mi South 3.5 mph - N/A   Mostly Cloudy
3:35 AM 73.4 °F - 71.6 °F 94% 30.05 in 10.0 mi Calm Calm - N/A   Partly Cloudy
3:55 AM 73.4 °F - 71.6 °F 94% 30.05 in 10.0 mi Calm Calm - N/A   Clear
4:15 AM 73.4 °F - 71.6 °F 94% 30.05 in 10.0 mi Calm Calm - N/A   Partly Cloudy
4:35 AM 73.4 °F - 71.6 °F 94% 30.05 in 10.0 mi South 3.5 mph - N/A   Scattered Clouds
4:55 AM 73.4 °F - 71.6 °F 94% 30.05 in 10.0 mi Calm Calm - N/A   Partly Cloudy
5:30 AM 73.4 °F - 71.6 °F 94% 30.05 in 10.0 mi SE 3.5 mph - N/A   Mostly Cloudy
5:50 AM 73.4 °F - 71.6 °F 94% 30.06 in 10.0 mi Calm Calm - N/A   Mostly Cloudy
6:50 AM 73.4 °F - 71.6 °F 94% 30.07 in 10.0 mi South 3.5 mph - N/A   Mostly Cloudy
7:50 AM 78.8 °F - 73.4 °F 83% 30.07 in 10.0 mi South 4.6 mph - N/A   Mostly Cloudy
8:50 AM 82.4 °F 88.2 °F 73.4 °F 74% 30.08 in 10.0 mi SW 5.8 mph - N/A   Scattered Clouds
9:50 AM 75.2 °F - 73.4 °F 94% 30.08 in 10.0 mi Calm Calm - N/A Rain Light Rain
10:50 AM 82.4 °F 89.5 °F 75.2 °F 79% 30.07 in 10.0 mi SW 5.8 mph - N/A   Mostly Cloudy
11:50 AM 86.0 °F 95.1 °F 75.2 °F 70% 30.06 in 10.0 mi SW 4.6 mph - N/A   Scattered Clouds
12:50 PM 87.8 °F 97.6 °F 75.2 °F 66% 30.04 in 10.0 mi South 3.5 mph - N/A   Scattered Clouds
1:50 PM 87.8 °F 97.6 °F 75.2 °F 66% 30.03 in 10.0 mi SW 4.6 mph - N/A   Mostly Cloudy
2:50 PM 89.6 °F 98.2 °F 73.4 °F 59% 30.01 in 10.0 mi Calm Calm - N/A   Scattered Clouds
3:50 PM 89.6 °F 99.8 °F 75.2 °F 62% 29.99 in 10.0 mi South 4.6 mph - N/A   Scattered Clouds
4:50 PM 87.8 °F 95.6 °F 73.4 °F 62% 29.97 in 10.0 mi SSE 4.6 mph - N/A   Scattered Clouds
5:50 PM 87.8 °F 95.6 °F 73.4 °F 62% 29.95 in 10.0 mi SSE 4.6 mph - N/A   Partly Cloudy
6:50 PM 86.0 °F 93.4 °F 73.4 °F 66% 29.94 in 10.0 mi SSE 4.6 mph - N/A   Mostly Cloudy
7:50 PM 84.2 °F 90.9 °F 73.4 °F 70% 29.95 in 10.0 mi Variable 3.5 mph - N/A   Mostly Cloudy
9:50 PM 80.6 °F 85.4 °F 73.4 °F 79% 29.96 in 10.0 mi SSE 3.5 mph - N/A   Partly Cloudy
10:50 PM 78.8 °F - 73.4 °F 83% 29.95 in 10.0 mi Calm Calm - N/A   Clear
11:50 PM 77.0 °F - 73.4 °F 89% 29.94 in 10.0 mi SSE 3.5 mph - N/A   Clear